[[{"header":{"parameterUnit":"m.s-1","parameterCategory":1,"la1":30.2991,"la2":30.254,"lo1":-89.0895,"lo2":-89.0444,"dx":0.0017,"dy":0.0017,"nx":28,"ny":28,"refTime":"2023-01-14T03:00:00:Z","depth":0,"parameterNumber":2,"parameterNumberName":"U-component_of_WINDS"},"data":[0,0,0,0,0,0,0,0,0,0,0,0,0,0,0,0,0,0,0,0,0,0,0,0,0,0,0,0,0,0,0,0,0,0,0,0,0,0,0,0,0,0,0,0,0,0,0,0,0,0,0,0,0,0,0,0,0,0,1.4797,1.4797,0,1.4784,1.4784,1.4784,1.4758,1.4757,1.4757,1.4756,1.4742,1.4742,1.4742,0,0,0,0,0,0,0,0,0,0,0,0,0,1.48,1.48,1.4797,1.4797,1.4797,1.4784,1.4784,1.4784,1.4758,1.4757,1.4756,1.4756,1.4742,1.4742,1.4742,0,0,0,0,0,0,0,0,0,0,0,0,0,1.4794,1.48,1.4797,1.4782,1.4781,1.4784,1.4784,1.4784,1.4758,1.4757,1.4756,1.4756,1.4742,1.4742,1.4742,1.4759,0,0,1.4743,1.4743,0,0,0,0,0,0,0,0,1.4794,1.4794,1.4785,1.4783,1.4782,1.4772,1.478,1.4775,1.4758,1.4767,1.4756,1.4755,1.4753,1.4752,1.4751,1.4758,1.4757,1.4743,1.4743,1.4743,1.4743,0,0,0,0,0,0,0,1.4795,1.4794,1.4792,1.4784,1.4783,1.4776,1.4775,1.4779,1.4764,1.4766,1.4764,1.4763,1.4752,1.4751,1.475,1.4757,1.4743,1.4743,1.4743,1.4743,1.4778,1.4779,0,0,0,0,0,0,1.4797,1.4795,1.4792,1.4791,1.4786,1.4777,1.4775,1.4776,1.4764,1.4761,1.4763,1.4761,1.4751,1.475,1.475,1.4769,1.4743,1.4743,1.4743,1.4777,1.4778,1.4779,0,0,0,0,0,0,1.4798,1.4797,1.4793,1.4793,1.4792,1.4778,1.4779,1.4776,1.4775,1.4762,1.4759,1.4765,1.475,1.475,1.4757,1.4768,1.4743,1.4743,1.4776,1.4777,1.4779,1.4806,0,0,0,0,0,0,1.4798,1.4798,1.4803,1.4793,1.4792,1.48,1.4779,1.4776,1.4775,1.4773,1.4763,1.4761,1.475,1.4757,1.4757,1.4767,1.4743,1.4775,1.4777,1.4778,1.4804,1.4808,1.4811,0,0,0,0,0,1.4798,1.4811,1.4804,1.4804,1.4799,1.4801,1.48,1.4787,1.4776,1.4782,1.4774,1.4761,1.4767,1.4758,1.4758,1.4768,1.4774,1.4776,1.4778,1.4802,1.4807,1.4811,0,0,0,0,0,0,1.4823,1.481,1.4801,1.4812,1.4808,1.4796,1.4803,1.4792,1.4791,1.4789,1.4773,1.4771,1.478,1.4775,1.4765,1.4784,1.4769,1.477,1.4787,1.4791,1.4795,1.4796,1.4744,0,0,0,0,0,1.483,1.4833,1.4821,1.4831,1.483,1.4817,1.4817,1.4808,1.4803,1.4801,1.4793,1.4789,1.479,1.479,1.479,1.4804,1.4801,1.4811,1.4815,1.4818,1.4819,1.4827,1.4831,1.4785,1.4785,1.4785,0,0,1.4844,1.4837,1.4839,1.4836,1.4832,1.4835,1.4816,1.482,1.4822,1.4801,1.4808,1.4802,1.4796,1.4807,1.4811,1.4803,1.4832,1.482,1.4823,1.4823,1.4829,1.4833,1.4837,1.4786,1.4786,1.4786,0,0,1.4871,1.4866,1.4874,1.4871,1.4865,1.4856,1.4858,1.4849,1.4845,1.4851,1.4836,1.4839,1.484,1.4837,1.4835,1.4863,1.4851,1.4863,1.4882,1.489,1.4893,1.4896,1.4906,1.491,1.4865,1.4865,1.4865,0,1.4889,1.4893,1.488,1.4885,1.4884,1.4867,1.4875,1.4872,1.4867,1.4867,1.4858,1.486,1.4855,1.4864,1.4871,1.4871,1.4873,1.4864,1.4894,1.4897,1.4899,1.4909,1.4913,1.4867,1.4867,1.4867,1.4866,0,1.4916,1.4919,1.4927,1.4922,1.4922,1.4929,1.4917,1.4919,1.491,1.4903,1.491,1.4903,1.4902,1.4904,1.4895,1.4913,1.4908,1.4897,1.488,1.4906,1.4914,1.4918,1.4869,1.4869,1.4868,1.4868,0,0,1.4957,1.4946,1.4949,1.4947,1.494,1.4942,1.4949,1.4948,1.495,1.4947,1.4952,1.4955,1.4945,1.4943,1.4934,1.494,1.4963,1.4928,1.4928,1.4935,1.4982,1.4991,1.4995,1.4955,1.4956,1.4956,1.4983,0,1.4982,1.4993,1.4981,1.4994,1.4998,1.4981,1.4987,1.4984,1.4977,1.4979,1.4973,1.4975,1.4961,1.496,1.4966,1.4959,1.4972,1.4957,1.496,1.496,1.4961,1.4999,1.5008,1.5033,1.4986,1.4987,1.4987,0,1.5013,1.5012,1.5025,1.5018,1.5019,1.5024,1.5023,1.5025,1.5021,1.5016,1.5015,1.5004,1.501,1.4995,1.5004,1.4994,1.4995,1.4991,1.4992,1.4991,1.4975,1.4999,1.5041,1.5045,1.4992,1.4992,1.4991,0,1.5041,1.5044,1.5052,1.5051,1.5043,1.5047,1.5044,1.5039,1.5039,1.5038,1.5039,1.5039,1.5038,1.5039,1.5028,1.5018,1.5038,1.5022,1.5034,1.5035,1.5039,1.5038,1.508,1.504,1.504,1.504,1.504,0,1.5071,1.5079,1.5065,1.507,1.508,1.5067,1.5077,1.5072,1.5068,1.5072,1.5059,1.5063,1.5049,1.5052,1.5044,1.5052,1.5052,1.5049,1.5046,1.505,1.505,1.5049,1.5047,1.5041,1.504,1.504,1.504,0,1.5104,1.5095,1.5103,1.5095,1.5093,1.5101,1.5094,1.5098,1.5092,1.5097,1.5098,1.5088,1.509,1.508,1.5081,1.5076,1.5088,1.5083,1.509,1.5088,1.5101,1.51,1.5144,1.5149,1.5105,1.5106,1.5106,0,1.5123,1.5129,1.5122,1.5124,1.5122,1.5125,1.5126,1.5114,1.5116,1.5112,1.5117,1.5119,1.512,1.5125,1.5118,1.5118,1.5113,1.5128,1.5113,1.5116,1.5113,1.5113,1.5113,1.5131,1.5132,1.5132,1.5133,0,1.5158,1.5153,1.5155,1.5155,1.5156,1.5156,1.5155,1.5157,1.5145,1.5147,1.515,1.5151,1.5152,1.5154,1.5153,1.515,1.514,1.5138,1.5141,1.5144,1.5147,1.5146,1.5098,1.5137,1.5136,1.5136,1.5136,1.5136,1.5184,1.519,1.5186,1.5188,1.5186,1.5186,1.519,1.5184,1.5186,1.5187,1.518,1.5184,1.5181,1.5179,1.5177,1.5181,1.5174,1.5178,1.5179,1.518,1.5182,1.5147,1.5181,1.5181,1.518,1.518,1.518,0,1.5218,1.5215,1.5218,1.5217,1.5219,1.5209,1.5208,1.521,1.5214,1.5212,1.5213,1.5217,1.5219,1.5213,1.5214,1.5218,1.5213,1.5219,1.5218,1.5218,1.5188,1.5186,1.5223,1.5223,1.5223,1.5223,1.5223,1.5223,1.5236,1.5245,1.524,1.5248,1.5244,1.5249,1.5249,1.5248,1.5247,1.5252,1.5253,1.5249,1.5246,1.5247,1.5248,1.5246,1.5247,1.5255,1.5251,1.5224,1.5219,1.5216,1.5213,1.5255,1.5255,1.528,1.528,1.528]},{"header":{"parameterUnit":"m.s-1","parameterCategory":1,"la1":30.2991,"la2":30.254,"lo1":-89.0895,"lo2":-89.0444,"dx":0.0017,"dy":0.0017,"nx":28,"ny":28,"refTime":"2023-01-14T03:00:00:Z","depth":0,"parameterNumber":3,"parameterNumberName":"V-component_of_WINDS"},"data":[0,0,0,0,0,0,0,0,0,0,0,0,0,0,0,0,0,0,0,0,0,0,0,0,0,0,0,0,0,0,0,0,0,0,0,0,0,0,0,0,0,0,0,0,0,0,0,0,0,0,0,0,0,0,0,0,0,0,-3.0421,-3.0422,0,-3.0516,-3.0517,-3.0518,-3.0536,-3.0535,-3.0534,-3.0534,-3.0628,-3.0631,-3.0634,0,0,0,0,0,0,0,0,0,0,0,0,0,-3.0253,-3.0255,-3.0421,-3.0422,-3.0423,-3.0516,-3.0517,-3.0518,-3.0536,-3.0535,-3.0534,-3.0533,-3.0627,-3.063,-3.0634,0,0,0,0,0,0,0,0,0,0,0,0,0,-3.0334,-3.0256,-3.042,-3.0443,-3.0446,-3.0515,-3.0517,-3.0519,-3.0536,-3.0535,-3.0534,-3.0533,-3.0625,-3.063,-3.0635,-3.0687,0,0,-3.0649,-3.0652,0,0,0,0,0,0,0,0,-3.033,-3.034,-3.0439,-3.0442,-3.0445,-3.0513,-3.0492,-3.0575,-3.0537,-3.0502,-3.0534,-3.0532,-3.059,-3.0598,-3.0618,-3.0692,-3.0696,-3.065,-3.0653,-3.0655,-3.0656,0,0,0,0,0,0,0,-3.0324,-3.0336,-3.0458,-3.044,-3.0444,-3.0448,-3.0458,-3.0508,-3.0551,-3.0505,-3.0506,-3.0518,-3.0592,-3.0613,-3.062,-3.0697,-3.065,-3.0654,-3.0657,-3.0659,-3.0821,-3.0823,0,0,0,0,0,0,-3.0315,-3.0332,-3.0455,-3.0461,-3.0384,-3.0452,-3.0464,-3.0492,-3.0551,-3.0559,-3.0518,-3.0518,-3.0606,-3.0615,-3.0624,-3.0691,-3.0655,-3.0659,-3.0662,-3.082,-3.0822,-3.0823,0,0,0,0,0,0,-3.0311,-3.0325,-3.0451,-3.0397,-3.0413,-3.0456,-3.0488,-3.0495,-3.0517,-3.0561,-3.0569,-3.0533,-3.0605,-3.0617,-3.0672,-3.0695,-3.0662,-3.0666,-3.0818,-3.082,-3.0822,-3.0825,0,0,0,0,0,0,-3.0306,-3.0324,-3.0344,-3.0397,-3.0416,-3.0499,-3.0489,-3.0497,-3.0525,-3.0526,-3.0577,-3.0584,-3.0605,-3.0665,-3.0677,-3.0701,-3.067,-3.0816,-3.0819,-3.0822,-3.0824,-3.0827,-3.0831,0,0,0,0,0,-3.03,-3.034,-3.0345,-3.036,-3.0443,-3.05,-3.0511,-3.0536,-3.0527,-3.0548,-3.0577,-3.0582,-3.069,-3.0671,-3.0684,-3.071,-3.0815,-3.0818,-3.0822,-3.0822,-3.0827,-3.0831,0,0,0,0,0,0,-3.0287,-3.0347,-3.0354,-3.0412,-3.0451,-3.0503,-3.053,-3.0539,-3.058,-3.0579,-3.0607,-3.0618,-3.0672,-3.0696,-3.0673,-3.0765,-3.0752,-3.0758,-3.0748,-3.0753,-3.0756,-3.075,-3.0674,0,0,0,0,0,-3.0291,-3.0333,-3.0383,-3.043,-3.0449,-3.0487,-3.0512,-3.0528,-3.0569,-3.0585,-3.0618,-3.0657,-3.07,-3.0727,-3.0769,-3.0827,-3.0839,-3.0851,-3.0855,-3.0858,-3.0863,-3.0898,-3.0905,-3.0834,-3.0834,-3.0834,0,0,-3.03,-3.0338,-3.0362,-3.0429,-3.046,-3.0504,-3.05,-3.0545,-3.0577,-3.0591,-3.0647,-3.0672,-3.0717,-3.0775,-3.0802,-3.0797,-3.0885,-3.0862,-3.0864,-3.0868,-3.0902,-3.0909,-3.0915,-3.0836,-3.0836,-3.0835,0,0,-3.0338,-3.037,-3.0415,-3.0447,-3.0497,-3.0521,-3.0532,-3.0583,-3.0601,-3.0658,-3.067,-3.0708,-3.0781,-3.0814,-3.084,-3.0893,-3.09,-3.0906,-3.0925,-3.0959,-3.0964,-3.097,-3.0991,-3.0998,-3.091,-3.091,-3.0911,0,-3.0342,-3.0408,-3.0435,-3.0482,-3.0511,-3.0528,-3.0573,-3.0603,-3.0663,-3.0683,-3.0676,-3.077,-3.0801,-3.0868,-3.0881,-3.0901,-3.0915,-3.09,-3.0962,-3.0967,-3.0972,-3.0993,-3.1001,-3.0911,-3.0911,-3.0911,-3.0911,0,-3.0412,-3.0458,-3.0488,-3.0548,-3.0581,-3.0625,-3.066,-3.0689,-3.0703,-3.0729,-3.0787,-3.0825,-3.0876,-3.0893,-3.0905,-3.0963,-3.0958,-3.0956,-3.0944,-3.0979,-3.0999,-3.1007,-3.0912,-3.0912,-3.0911,-3.0911,0,0,-3.0444,-3.0521,-3.0531,-3.056,-3.0617,-3.0653,-3.0699,-3.0751,-3.0777,-3.0817,-3.0858,-3.092,-3.092,-3.095,-3.0966,-3.0996,-3.1039,-3.0991,-3.0992,-3.1,-3.1107,-3.1109,-3.1118,-3.1044,-3.1045,-3.1046,-3.1104,0,-3.0491,-3.0576,-3.0603,-3.0674,-3.0718,-3.0736,-3.0776,-3.0815,-3.0841,-3.0881,-3.0909,-3.0954,-3.0949,-3.0967,-3.0997,-3.1027,-3.1061,-3.1023,-3.1082,-3.1084,-3.1072,-3.1128,-3.113,-3.1182,-3.1111,-3.1113,-3.1114,0,-3.0557,-3.0602,-3.0678,-3.0732,-3.0751,-3.0787,-3.0839,-3.0877,-3.0922,-3.0939,-3.0973,-3.0988,-3.1038,-3.1022,-3.1092,-3.1066,-3.1091,-3.111,-3.1112,-3.112,-3.1102,-3.1139,-3.1199,-3.1208,-3.1126,-3.1125,-3.1124,0,-3.0575,-3.0654,-3.0711,-3.0735,-3.0798,-3.0824,-3.0851,-3.0896,-3.0926,-3.097,-3.0991,-3.1039,-3.1066,-3.1104,-3.1132,-3.1117,-3.1199,-3.1185,-3.1215,-3.1215,-3.1233,-3.1231,-3.13,-3.1246,-3.1246,-3.1246,-3.1246,0,-3.0626,-3.0672,-3.0721,-3.0756,-3.0809,-3.0839,-3.0891,-3.0919,-3.0959,-3.0999,-3.1016,-3.1054,-3.1088,-3.113,-3.1152,-3.1208,-3.1219,-3.1234,-3.124,-3.1234,-3.1232,-3.1252,-3.125,-3.1248,-3.1247,-3.1247,-3.1247,0,-3.0656,-3.069,-3.0754,-3.081,-3.0825,-3.0862,-3.091,-3.0945,-3.0971,-3.1023,-3.1037,-3.1079,-3.113,-3.1161,-3.1225,-3.124,-3.1302,-3.1305,-3.1287,-3.129,-3.1319,-3.1317,-3.1404,-3.1418,-3.1353,-3.1354,-3.1354,0,-3.0686,-3.0723,-3.0784,-3.0814,-3.0843,-3.0889,-3.0921,-3.0953,-3.0985,-3.1042,-3.107,-3.1122,-3.1166,-3.1247,-3.1283,-3.1332,-3.1338,-3.1365,-3.1346,-3.134,-3.1341,-3.134,-3.1344,-3.1369,-3.137,-3.137,-3.137,0,-3.0738,-3.0754,-3.0801,-3.0854,-3.0892,-3.0935,-3.0977,-3.1,-3.1039,-3.1075,-3.1129,-3.1163,-3.123,-3.1283,-3.1336,-3.1364,-3.1374,-3.1376,-3.1386,-3.1382,-3.1371,-3.138,-3.1299,-3.1374,-3.1374,-3.1374,-3.1374,-3.1373,-3.0771,-3.0806,-3.0855,-3.0907,-3.0943,-3.0983,-3.102,-3.1052,-3.1098,-3.1157,-3.1172,-3.1229,-3.1275,-3.1348,-3.1377,-3.1422,-3.1418,-3.1432,-3.1435,-3.1439,-3.1441,-3.1363,-3.1431,-3.1431,-3.1431,-3.1431,-3.1431,0,-3.0826,-3.0859,-3.0907,-3.0967,-3.1009,-3.1016,-3.1064,-3.1098,-3.1148,-3.1191,-3.1235,-3.1298,-3.135,-3.139,-3.1444,-3.1472,-3.1478,-3.1485,-3.1484,-3.1491,-3.144,-3.1428,-3.1479,-3.1479,-3.1479,-3.1479,-3.1479,-3.1479,-3.0859,-3.0919,-3.0942,-3.102,-3.1053,-3.111,-3.1137,-3.1175,-3.121,-3.128,-3.1324,-3.1351,-3.1393,-3.145,-3.1498,-3.1509,-3.1528,-3.1535,-3.1546,-3.1499,-3.1494,-3.1489,-3.1477,-3.1538,-3.1538,-3.1593,-3.1594,-3.1594]}]]